User: anonymous   Login
Location: Unspecified
(0.0000°N, 0.0000°E)
Time: 00:09:51
(UTC+00:00)
Language:

STARLINK-6060 - Orbit

View from above orbital plane
View from above orbital plane
View from above satellite
View from above satellite

Ground track
Ground track

The orbit is defined by the following mean orbital elements,

1 56794U          26145.39438778 +.00000000 +00000-0 +13749-3 0 00008
2 56794  69.9986 131.0369 0003906 266.8679  93.2034 14.98332249    01
Epoch (UTC): 25 May 2026 09:27:55
Eccentricity: 0.0003906
inclination: 69.9986°
perigee height: 569 km
apogee height: 575 km
right ascension of ascending node: 131.0369°
argument of perigee: 266.8679°
revolutions per day: 14.98332249
mean anomaly at epoch: 93.2034°

The dashed part of the orbit path shows where the satellite is in the earth's shadow,  

DLR